Погода в Гусевском

Россия / Владимирская область     55°39′40″N   40°33′45″E
темп.,
°C
ветер,
м/с
пор.,
м/с
влажн.,
%
обл.,
%
осадки,
мм/ч
давл.,
гПа
погр.,
м
13 мая, чт
чт1300:00+13юв310865 0.0 1020464
03:00+12ююв269486 0.0 1020352
06:00+12ю258986 0.0 1021349
09:00+16юв35655 0.0 1020904
12:00+20юв354121 0.0 10181459
15:00+17в466593 0.8 1017459
18:00+17вюв34745 0.2 1016308
21:00+13вюв2296100 0.2 101725
14 мая, пт
пт1400:00+12ююв11894 0.0 101711
03:00+10юв23913 0.0 101846
06:00+12ююв278682 0.0 1018200
09:00+17ююв3664100 0.0 1018496
12:00+22ююв4650100 0.0 10181525
15:00+24юв4645100 0.0 10161958
18:00+21юв4862100 0.0 1015914
21:00+16вюв31193100 3.6 1013245
15 мая, сб
сб1500:00+15юв299683 1.6 1012182
03:00+15юв2597100 2.1 1012102
06:00+16юв2497100 1.1 1012115
09:00+20юв3681100 2.5 1011581
12:00+22ю4673100 2.1 1011829
15:00+21ю51177100 4.4 10111314
18:00+20ююз510773 1.1 1011903
21:00+15ююз27955 2.0 1012161
16 мая, вс
вс1600:00+14ююз2596100 0.0 101396
03:00+12ююз23961 0.0 101346
06:00+14ю259365 0.0 1014150
09:00+19ююз3670100 0.0 1014656
12:00+22ююз58526 0.1 10141900
15:00+23юз69452 0.1 10142055
18:00+20юз36600 0.0 10141198
21:00+15юз22850 0.0 101517
17 мая, пн
пн1700:00+13з1191100 0.0 101610
03:00+12всв1192100 0.0 101710
06:00+14в24845 0.0 1017113
09:00+20в345816 0.0 1017606
12:00+24в34508 0.0 10161241
15:00+27вюв45465 0.0 10151694
18:00+25вюв36595 0.0 1014360
21:00+19в31088100 0.0 1014177